[[{"header":{"parameterUnit":"m.s-1","parameterCategory":1,"la1":30.2991,"la2":30.254,"lo1":-89.0895,"lo2":-89.0444,"dy":0.0017,"dx":0.0017,"nx":28,"ny":28,"refTime":"2026-01-04T09:00:00:Z","depth":0,"parameterNumber":2,"parameterNumberName":"U-component_of_WINDS"},"data":[0,0,0,0,0,0,0,0,0,0,0,0,0,0,0,0,0,0,0,0,0,0,0,0,0,0,0,0,0,0,0,0,0,0,0,0,0,0,0,0,0,0,0,0,0,0,0,0,0,0,0,0,0,0,0,0,0,0,0.3697,0.3696,0,0.3637,0.3636,0.3635,0.3619,0.362,0.362,0.3621,0.3555,0.3553,0.3551,0,0,0,0,0,0,0,0,0,0,0,0,0,0.3796,0.3794,0.3697,0.3696,0.3695,0.3637,0.3636,0.3635,0.3619,0.362,0.362,0.3621,0.3556,0.3554,0.3551,0,0,0,0,0,0,0,0,0,0,0,0,0,0.3746,0.3793,0.3697,0.3681,0.3679,0.3637,0.3636,0.3635,0.3619,0.362,0.362,0.3621,0.3557,0.3554,0.3551,0.352,0,0,0.3541,0.354,0,0,0,0,0,0,0,0,0.3749,0.3742,0.3684,0.3682,0.3679,0.3636,0.3647,0.3596,0.3619,0.3642,0.3621,0.3621,0.3582,0.3577,0.3564,0.3517,0.3514,0.3541,0.3539,0.3538,0.3537,0,0,0,0,0,0,0,0.3752,0.3745,0.3673,0.3683,0.368,0.3675,0.3669,0.3637,0.3609,0.364,0.3639,0.3632,0.358,0.3567,0.3562,0.3513,0.3541,0.3538,0.3536,0.3535,0.3437,0.3436,0,0,0,0,0,0,0.3759,0.3748,0.3675,0.3671,0.3716,0.3673,0.3666,0.3649,0.3609,0.3604,0.3631,0.3631,0.3572,0.3566,0.356,0.352,0.3538,0.3535,0.3533,0.3437,0.3436,0.3436,0,0,0,0,0,0,0.3761,0.3752,0.3677,0.3709,0.3699,0.3671,0.3652,0.3648,0.3634,0.3603,0.3598,0.3623,0.3572,0.3564,0.353,0.3518,0.3533,0.3531,0.3438,0.3437,0.3436,0.3441,0,0,0,0,0,0,0.3764,0.3753,0.3742,0.3709,0.3697,0.365,0.3652,0.3646,0.3629,0.3629,0.3594,0.3588,0.3572,0.3535,0.3527,0.3514,0.3528,0.3439,0.3438,0.3436,0.3442,0.344,0.3439,0,0,0,0,0,0.3767,0.3745,0.3742,0.3733,0.3683,0.3649,0.3642,0.3625,0.3629,0.3616,0.3596,0.3589,0.3521,0.3531,0.3522,0.3508,0.344,0.3438,0.3437,0.3443,0.3441,0.3439,0,0,0,0,0,0,0.3777,0.3741,0.3736,0.3703,0.3679,0.3646,0.3631,0.3624,0.3597,0.3598,0.3576,0.3568,0.3535,0.3518,0.3531,0.3475,0.348,0.3476,0.3488,0.3486,0.3484,0.3488,0.3525,0,0,0,0,0,0.3775,0.3752,0.3721,0.3695,0.3683,0.3659,0.3644,0.3632,0.3606,0.3596,0.3573,0.3547,0.352,0.3502,0.3475,0.344,0.3431,0.3425,0.3424,0.3423,0.342,0.3398,0.3395,0.343,0.343,0.343,0,0,0.3771,0.3749,0.3735,0.3696,0.3676,0.3651,0.3651,0.3624,0.3605,0.3591,0.3558,0.354,0.351,0.3475,0.3458,0.3459,0.3408,0.3421,0.342,0.3417,0.3396,0.3393,0.339,0.3429,0.3429,0.343,0,0,0.3751,0.3733,0.3708,0.3688,0.3659,0.3643,0.3637,0.3605,0.3593,0.3559,0.3549,0.3525,0.3478,0.3457,0.3439,0.3411,0.3403,0.3403,0.3395,0.3374,0.3372,0.3369,0.3357,0.3354,0.34,0.34,0.34,0,0.375,0.3713,0.3696,0.367,0.3653,0.3641,0.3615,0.3596,0.3559,0.3547,0.3549,0.349,0.3469,0.3428,0.3421,0.3408,0.3399,0.3406,0.3374,0.3371,0.3368,0.3357,0.3353,0.34,0.34,0.34,0.34,0,0.3712,0.3686,0.3669,0.3635,0.3616,0.359,0.3568,0.3551,0.3541,0.3525,0.3489,0.3464,0.3431,0.342,0.3411,0.3378,0.3379,0.3378,0.3382,0.3365,0.3354,0.335,0.34,0.34,0.34,0.34,0,0,0.3695,0.3652,0.3646,0.363,0.3596,0.3575,0.3548,0.3517,0.3502,0.3477,0.3453,0.3413,0.3412,0.3392,0.338,0.3362,0.334,0.3363,0.3362,0.3358,0.33,0.3301,0.3296,0.3335,0.3334,0.3334,0.3302,0,0.367,0.3622,0.3607,0.3567,0.3542,0.353,0.3507,0.3483,0.3467,0.3443,0.3424,0.3396,0.3397,0.3385,0.3367,0.3346,0.3328,0.3349,0.3311,0.331,0.3318,0.329,0.3291,0.3263,0.3298,0.3297,0.3297,0,0.3634,0.3609,0.3567,0.3536,0.3525,0.3504,0.3474,0.3451,0.3424,0.3413,0.3391,0.338,0.335,0.3357,0.3315,0.3329,0.3313,0.33,0.3299,0.3293,0.3301,0.3283,0.3253,0.3249,0.329,0.3291,0.3291,0,0.3624,0.358,0.3549,0.3535,0.3499,0.3484,0.3468,0.3442,0.3424,0.3397,0.3385,0.3354,0.3337,0.3314,0.3294,0.3301,0.3253,0.3258,0.3242,0.3242,0.3231,0.3232,0.3197,0.3223,0.3223,0.3223,0.3223,0,0.3597,0.3571,0.3544,0.3525,0.3495,0.3477,0.3448,0.3431,0.3408,0.3384,0.3372,0.3349,0.3326,0.33,0.3284,0.3251,0.3243,0.3233,0.3229,0.3233,0.3234,0.3221,0.3222,0.3222,0.3222,0.3223,0.3223,0,0.358,0.3562,0.3527,0.3495,0.3487,0.3466,0.3439,0.3419,0.3403,0.3373,0.3364,0.3338,0.3307,0.3286,0.3245,0.3235,0.3198,0.3195,0.3208,0.3205,0.3189,0.3191,0.3144,0.3136,0.3169,0.3168,0.3168,0,0.3563,0.3544,0.351,0.3494,0.3478,0.3452,0.3434,0.3415,0.3397,0.3363,0.3347,0.3316,0.3289,0.324,0.3216,0.3185,0.318,0.3166,0.3175,0.318,0.3178,0.3179,0.3176,0.3164,0.3164,0.3164,0.3163,0,0.3535,0.3526,0.3501,0.3473,0.3452,0.3428,0.3404,0.3391,0.3368,0.3347,0.3316,0.3296,0.3255,0.3223,0.319,0.3172,0.3163,0.3161,0.3155,0.3159,0.3166,0.316,0.3202,0.3162,0.3162,0.3162,0.3162,0.3162,0.3517,0.3498,0.3472,0.3444,0.3424,0.3402,0.3382,0.3363,0.3337,0.3303,0.3294,0.326,0.3232,0.3187,0.3168,0.3141,0.3142,0.3134,0.3132,0.313,0.3129,0.3172,0.3135,0.3135,0.3135,0.3135,0.3135,0,0.3486,0.3469,0.3443,0.3411,0.3388,0.3384,0.3357,0.3338,0.331,0.3285,0.326,0.3223,0.3192,0.3166,0.3134,0.3117,0.3112,0.3109,0.3109,0.3105,0.3131,0.3138,0.3113,0.3113,0.3113,0.3113,0.3113,0.3113,0.3468,0.3436,0.3424,0.3382,0.3364,0.3333,0.3318,0.3297,0.3277,0.3237,0.3211,0.3195,0.3169,0.3135,0.3106,0.3099,0.3087,0.3084,0.3076,0.3101,0.3103,0.3105,0.3112,0.3082,0.3082,0.3052,0.3052,0.3052]},{"header":{"parameterUnit":"m.s-1","parameterCategory":1,"la1":30.2991,"la2":30.254,"lo1":-89.0895,"lo2":-89.0444,"dy":0.0017,"dx":0.0017,"nx":28,"ny":28,"refTime":"2026-01-04T09:00:00:Z","depth":0,"parameterNumber":3,"parameterNumberName":"V-component_of_WINDS"},"data":[0,0,0,0,0,0,0,0,0,0,0,0,0,0,0,0,0,0,0,0,0,0,0,0,0,0,0,0,0,0,0,0,0,0,0,0,0,0,0,0,0,0,0,0,0,0,0,0,0,0,0,0,0,0,0,0,0,0,-0.4292,-0.4292,0,-0.4258,-0.4257,-0.4257,-0.423,-0.423,-0.423,-0.423,-0.4193,-0.4192,-0.4191,0,0,0,0,0,0,0,0,0,0,0,0,0,-0.4333,-0.4333,-0.4292,-0.4292,-0.4291,-0.4258,-0.4257,-0.4257,-0.4231,-0.423,-0.423,-0.423,-0.4193,-0.4192,-0.4191,0,0,0,0,0,0,0,0,0,0,0,0,0,-0.4309,-0.4333,-0.4292,-0.4274,-0.4272,-0.4258,-0.4257,-0.4257,-0.4231,-0.423,-0.423,-0.423,-0.4193,-0.4192,-0.4191,-0.4191,0,0,-0.4187,-0.4187,0,0,0,0,0,0,0,0,-0.431,-0.4307,-0.4277,-0.4275,-0.4273,-0.4248,-0.4258,-0.4235,-0.4231,-0.4246,-0.423,-0.4229,-0.4211,-0.4209,-0.4203,-0.4189,-0.4188,-0.4187,-0.4187,-0.4186,-0.4186,0,0,0,0,0,0,0,-0.4312,-0.4309,-0.4278,-0.4277,-0.4274,-0.4267,-0.4263,-0.4254,-0.4231,-0.4245,-0.4243,-0.4239,-0.421,-0.4204,-0.4202,-0.4187,-0.4187,-0.4186,-0.4186,-0.4185,-0.4172,-0.4172,0,0,0,0,0,0,-0.4317,-0.431,-0.428,-0.4277,-0.4291,-0.4267,-0.4262,-0.4256,-0.4231,-0.4227,-0.424,-0.4238,-0.4206,-0.4203,-0.42,-0.4199,-0.4186,-0.4185,-0.4184,-0.4171,-0.4172,-0.4172,0,0,0,0,0,0,-0.4318,-0.4314,-0.4281,-0.4293,-0.4289,-0.4266,-0.426,-0.4256,-0.425,-0.4227,-0.4223,-0.4238,-0.4206,-0.4202,-0.4194,-0.4197,-0.4185,-0.4184,-0.4171,-0.4171,-0.4172,-0.4196,0,0,0,0,0,0,-0.4319,-0.4315,-0.4315,-0.4294,-0.4288,-0.4276,-0.426,-0.4256,-0.4248,-0.4246,-0.4224,-0.422,-0.4205,-0.4196,-0.4193,-0.4196,-0.4183,-0.4171,-0.4171,-0.4172,-0.4195,-0.4198,-0.42,0,0,0,0,0,-0.4321,-0.4323,-0.4315,-0.4312,-0.4288,-0.4276,-0.4273,-0.4256,-0.4249,-0.4249,-0.4234,-0.4221,-0.4197,-0.4195,-0.4191,-0.4194,-0.417,-0.4171,-0.4172,-0.4194,-0.4197,-0.42,0,0,0,0,0,0,-0.4345,-0.432,-0.4311,-0.4307,-0.4294,-0.4272,-0.4271,-0.4259,-0.4248,-0.4246,-0.4225,-0.422,-0.4214,-0.4203,-0.4201,-0.4193,-0.4182,-0.4182,-0.42,-0.4203,-0.4205,-0.4208,-0.4182,0,0,0,0,0,-0.435,-0.4343,-0.4321,-0.4319,-0.4313,-0.4293,-0.4287,-0.4275,-0.4261,-0.4255,-0.424,-0.4225,-0.4215,-0.4208,-0.4197,-0.4193,-0.4188,-0.4193,-0.4195,-0.4197,-0.4198,-0.4195,-0.4197,-0.4175,-0.4175,-0.4174,0,0,-0.436,-0.4346,-0.4342,-0.4324,-0.4312,-0.4305,-0.4289,-0.4282,-0.4276,-0.4253,-0.4245,-0.4233,-0.4216,-0.421,-0.4206,-0.42,-0.4203,-0.4198,-0.42,-0.4199,-0.4196,-0.4198,-0.42,-0.4175,-0.4175,-0.4175,0,0,-0.4375,-0.4363,-0.4361,-0.435,-0.4333,-0.4319,-0.4319,-0.4298,-0.4289,-0.4281,-0.4264,-0.4256,-0.4238,-0.4226,-0.4218,-0.4228,-0.4215,-0.4224,-0.4237,-0.4234,-0.4236,-0.4237,-0.4241,-0.4243,-0.4225,-0.4225,-0.4225,0,-0.439,-0.4379,-0.4361,-0.4355,-0.4347,-0.4327,-0.4324,-0.4313,-0.4293,-0.4288,-0.4282,-0.4259,-0.4245,-0.4236,-0.4239,-0.4233,-0.4231,-0.4227,-0.4237,-0.4238,-0.424,-0.4243,-0.4244,-0.4226,-0.4226,-0.4226,-0.4226,0,-0.4398,-0.439,-0.439,-0.4372,-0.4364,-0.4359,-0.434,-0.4334,-0.4322,-0.4309,-0.43,-0.4283,-0.4269,-0.4265,-0.4254,-0.4254,-0.4251,-0.4241,-0.423,-0.4243,-0.4246,-0.4247,-0.4228,-0.4228,-0.4227,-0.4227,0,0,-0.4428,-0.44,-0.44,-0.4392,-0.4371,-0.4365,-0.4358,-0.4344,-0.434,-0.4326,-0.432,-0.4305,-0.4296,-0.4287,-0.4273,-0.4271,-0.428,-0.4261,-0.426,-0.4265,-0.428,-0.4288,-0.429,-0.4271,-0.4271,-0.4271,-0.4281,0,-0.444,-0.443,-0.4413,-0.4407,-0.44,-0.438,-0.4375,-0.4361,-0.4349,-0.434,-0.4326,-0.4316,-0.4304,-0.4298,-0.4295,-0.428,-0.4282,-0.4278,-0.4265,-0.4265,-0.4271,-0.4291,-0.43,-0.431,-0.4282,-0.4282,-0.4282,0,-0.4453,-0.4442,-0.4436,-0.4416,-0.4412,-0.4408,-0.4393,-0.4385,-0.4369,-0.436,-0.4349,-0.4335,-0.4327,-0.4316,-0.4305,-0.4302,-0.4296,-0.4287,-0.4287,-0.4286,-0.4275,-0.4291,-0.4313,-0.4315,-0.4284,-0.4284,-0.4284,0,-0.4477,-0.4459,-0.4454,-0.4447,-0.4423,-0.442,-0.441,-0.4394,-0.4386,-0.4373,-0.4368,-0.4354,-0.4346,-0.4335,-0.4317,-0.4311,-0.4308,-0.4296,-0.43,-0.43,-0.4301,-0.4301,-0.4322,-0.4295,-0.4295,-0.4295,-0.4295,0,-0.4493,-0.449,-0.4464,-0.4461,-0.4457,-0.4437,-0.4433,-0.4421,-0.4406,-0.4399,-0.4381,-0.4375,-0.4351,-0.4341,-0.4327,-0.432,-0.4316,-0.4308,-0.4305,-0.431,-0.4312,-0.4306,-0.4306,-0.4296,-0.4295,-0.4295,-0.4295,0,-0.4519,-0.4501,-0.4494,-0.4472,-0.4466,-0.4464,-0.4445,-0.444,-0.4426,-0.4418,-0.4415,-0.4393,-0.4381,-0.4361,-0.4344,-0.4334,-0.4329,-0.4323,-0.4335,-0.4333,-0.4339,-0.4339,-0.4358,-0.436,-0.4331,-0.4331,-0.4332,0,-0.4531,-0.4528,-0.4506,-0.45,-0.4491,-0.4482,-0.4475,-0.4454,-0.4447,-0.4428,-0.4426,-0.4413,-0.4401,-0.4383,-0.4365,-0.4351,-0.4344,-0.4352,-0.4342,-0.4348,-0.4345,-0.4346,-0.4346,-0.4355,-0.4355,-0.4356,-0.4356,0,-0.4553,-0.4545,-0.4535,-0.4522,-0.4514,-0.4502,-0.449,-0.4486,-0.4463,-0.4455,-0.4444,-0.4435,-0.4417,-0.4404,-0.4387,-0.4376,-0.4362,-0.4359,-0.4359,-0.4366,-0.4373,-0.437,-0.4342,-0.4359,-0.4359,-0.4358,-0.4358,-0.4358,-0.4573,-0.457,-0.4554,-0.4543,-0.4532,-0.4521,-0.4516,-0.4501,-0.4491,-0.4476,-0.4464,-0.4453,-0.4435,-0.4412,-0.4401,-0.4392,-0.4385,-0.4386,-0.4386,-0.4387,-0.4389,-0.4374,-0.4388,-0.4388,-0.4388,-0.4388,-0.4388,0,-0.4595,-0.4584,-0.4575,-0.4558,-0.455,-0.4538,-0.4523,-0.4517,-0.4508,-0.4493,-0.4482,-0.4468,-0.4455,-0.4436,-0.4422,-0.4418,-0.4411,-0.4415,-0.4415,-0.4413,-0.4395,-0.4397,-0.442,-0.442,-0.442,-0.442,-0.442,-0.442,-0.4606,-0.4601,-0.459,-0.4578,-0.4566,-0.4556,-0.4549,-0.4538,-0.4526,-0.4512,-0.4502,-0.4489,-0.4472,-0.4457,-0.4444,-0.4438,-0.4434,-0.444,-0.4433,-0.4417,-0.4414,-0.4411,-0.4413,-0.4439,-0.4439,-0.4451,-0.4451,-0.4451]}]]